TimeEDT,TemperatureF,Dew PointF,Humidity,Sea Level PressureIn,VisibilityMPH,Wind Direction,Wind SpeedMPH,Gust SpeedMPH,PrecipitationIn,Events,Conditions,WindDirDegrees,DateUTC
12:53 AM,75.0,71.1,87,30.22,10.0,Calm,Calm,-,N/A,,Clear,0,2013-07-15 04:53:00
1:53 AM,75.0,71.1,87,30.22,10.0,Calm,Calm,-,N/A,,Clear,0,2013-07-15 05:53:00
2:53 AM,73.9,70.0,87,30.21,10.0,Calm,Calm,-,N/A,,Clear,0,2013-07-15 06:53:00
3:53 AM,73.9,69.1,85,30.21,10.0,NNW,3.5,-,N/A,,Clear,330,2013-07-15 07:53:00
4:53 AM,73.0,69.1,87,30.21,10.0,Calm,Calm,-,N/A,,Clear,0,2013-07-15 08:53:00
5:53 AM,73.0,68.0,84,30.21,10.0,North,3.5,-,N/A,,Clear,350,2013-07-15 09:53:00
6:53 AM,73.9,68.0,82,30.22,10.0,North,4.6,-,N/A,,Partly Cloudy,360,2013-07-15 10:53:00
7:53 AM,78.1,68.0,71,30.22,10.0,North,5.8,-,N/A,,Partly Cloudy,350,2013-07-15 11:53:00
8:53 AM,81.0,69.1,67,30.22,10.0,NW,4.6,-,N/A,,Partly Cloudy,320,2013-07-15 12:53:00
9:53 AM,86.0,70.0,59,30.20,10.0,NNW,6.9,-,N/A,,Partly Cloudy,340,2013-07-15 13:53:00
10:53 AM,87.1,69.1,55,30.20,10.0,NNW,8.1,-,N/A,,Partly Cloudy,330,2013-07-15 14:53:00
11:53 AM,88.0,68.0,51,30.19,10.0,West,5.8,-,N/A,,Scattered Clouds,260,2013-07-15 15:53:00
12:53 PM,90.0,66.0,45,30.17,10.0,Variable,6.9,-,N/A,,Scattered Clouds,0,2013-07-15 16:53:00
1:53 PM,91.9,64.9,41,30.16,10.0,NNW,11.5,-,N/A,,Scattered Clouds,330,2013-07-15 17:53:00
2:53 PM,91.9,64.9,41,30.15,10.0,West,6.9,-,N/A,,Scattered Clouds,280,2013-07-15 18:53:00
3:53 PM,91.9,64.9,41,30.13,10.0,NNW,9.2,-,N/A,,Partly Cloudy,340,2013-07-15 19:53:00
4:53 PM,93.0,64.9,39,30.12,10.0,NNW,10.4,-,N/A,,Partly Cloudy,330,2013-07-15 20:53:00
5:53 PM,93.0,64.9,39,30.11,10.0,NW,9.2,-,N/A,,Partly Cloudy,320,2013-07-15 21:53:00
6:53 PM,91.0,64.9,42,30.11,10.0,NW,6.9,-,N/A,,Partly Cloudy,320,2013-07-15 22:53:00
7:53 PM,89.1,64.9,45,30.11,10.0,WNW,4.6,-,N/A,,Clear,300,2013-07-15 23:53:00
8:53 PM,86.0,66.0,51,30.12,10.0,NW,4.6,-,N/A,,Clear,320,2013-07-16 00:53:00
9:53 PM,82.9,66.0,56,30.14,10.0,Calm,Calm,-,N/A,,Clear,0,2013-07-16 01:53:00
10:53 PM,80.1,68.0,67,30.14,10.0,NW,4.6,-,N/A,,Clear,320,2013-07-16 02:53:00
11:53 PM,80.1,64.9,60,30.15,10.0,NNW,8.1,-,N/A,,Clear,330,2013-07-16 03:53:00